STARLINK-11235, 60726

Orbit data source: Space-Track

STARLINK-11235, 60726 is a payload satellite owned by SpaceX/Seattle (US) in LEO that was launched on Wed, 28 Aug 2024 UTC via an FALCON 9 launch vehicle from the Air Force Eastern Test Range (AFETR). Payload-class satellites include a variety of spacecraft equipped with specific instruments for various scientific and technological missions. These include communications satellites like Starlink; space stations such as the ISS; scientific satellites like the Hubble; Earth observation satellites from companies like Planet Labs, Umbra, and HawkEye 360; GPS; miniature CubeSats for education and research; and military/defense satellites.

Loading next visibility...
Identifier
60726, 2024-152G
Orbit
LEO
Last TLE update
2 days ago
Origin
Manufacturer
SpaceX/Seattle
Mission
Operational Commercial Communications
Bus & Motor
STARLINK V2M, Unknown motor
Mass
730 kg wet, ~700 kg dry
Launch date (UTC)
2024-08-28 (8 months ago)
Launch vehicle
FALCON 9
Launch site
Air Force Eastern Test Range (AFETR)
Object type
Payload
Rocket body
Debris
Shape & HBR
Box + 2 Pan, 29 m
Radar Cross Section
36.964 m², Large (>1 m²)

Expand to show TLE details & history

TLE from 2 days ago
0 STARLINK-11235
1 60726U 24152G   25118.70641629 -.00002598  00000-0 -16581-4 0  9998
2 60726  53.1592 228.9914 0001025  85.9939 274.1196 15.69720512 39497
Epoch: 2025-04-28T16:57Z
Definitive object data (Epoch: 2025-04-28T16:57:14.367Z)
Latitude
-0.00003°
Longitude
117.76493°
Altitude
360.562 km
Speed
7.694 km/s
True Right ascension
15h 15m 57s
True Declination
0° 00' 00"
Sunlit
Object was in full shadow at TLE epoch
Visualization TLE readout
Latitude
-33.17696°
Longitude
-41.75668°
Altitude
370.561 km
Speed
7.687 km/s
Apparent Right ascension
05h 36m 05s
Apparent Declination
-37° 18' 48"
Sunlit
Object is in daylight
Visualization observer readout
Local Sidereal Time
18:43:31
Azimuth
84.188° E
Elevation
-76.593°
Doppler factor
1
Orbital elements
Apogee altitude
360.648 km
Perigee altitude
359.267 km
Semi-major axis
6,738.094 km
Eccentricity
0.0001025
Inclination
53.1592°
RAAN
228.9914°
Arg. of periapsis
85.9939°
True anomaly
274.10788°
Mean anomaly
274.1196°
Eccentric anomaly
274.11374°
Mean motion
3.92408 °/min
BSTAR
-0.000016581
Orbital period
91.74 mins
Loading maneuver chart data...
Loading SW <> Apogee altitude chart data...
Loading historical data...
Loading historical data...
Loading historical data...
Loading historical data...
Loading historical data...
Loading historical data...
Loading historical data...

STARLINK-11235 Visibility forecast

Observer location: undefined°, undefined°

Span
Click to sort rows by Start time (UTC) header in descending order
Start Az.
Max El. time (UTC)
Max El. Az.
Max El.
End time (UTC)
End Az.
4 mins2025-04-30 16:51:24.356Z279.052° WNW2025-04-30 16:52:24.356Z237.709° WSW33.582°2025-04-30 16:55:24.356Z151.879° SSE
4 mins2025-05-01 09:20:24.356Z231.94° WSW2025-05-01 09:21:24.356Z251.164° W44.652°2025-05-01 09:24:24.356Z49.348° ENE
|